Temperature
17 17 17 17 17 17 17 18 18 18 18 18 18 18 18 18 18 18 18 18 18 18 18 18 18 18 18 18 18 18 18 18 18 18 18 18 18 18 18 18 18 18 18
17 17 17 18 18 18 18 17 17 17 17 18 18 18 18 17 17 17 17 17 17 17 17 17 17 18 18 18 18 18 18 18 18 18 18 18 18 18 18 18 18 18 18
17 17 17 18 18 18 18 17 17 17 17 17 18 18 17 17 17 17 17 17 17 17 17 17 17 17 17 17 17 17 17 17 17 17 17 17 17 17 17 17 17 17 17
17 17 18 18 18 18 18 18 17 17 17 17 17 17 17 17 17 17 17 17 17 17 17 17 17 17 17 17 17 17 17 17 17 17 17 17 17 17 17 17 17 17 17
17 18 18 18 18 18 18 17 17 17 17 17 17 17 17 17 17 17 17 17 17 17 17 17 17 17 17 17 17 17 17 17 17 17 17 17 17 17 17 17 17 17 17
17 17 17 17 17 17 17 17 17 17 17 17 17 17 17 17 17 17 17 17 17 17 17 17 17 17 17 17 17 17 17 17 17 17 17 17 17 17 17 17 17 17 17
17 17 17 17 17 17 17 17 17 17 17 17 17 17 17 17 17 17 17 17 17 17 16 16 16 16 16 16 16 16 16 16 17 17 17 17 17 17 17 17 17 17 17
17 17 17 17 17 17 17 17 17 17 17 17 17 17 17 17 17 17 16 16 16 16 16 16 16 16 16 16 16 16 16 16 16 16 16 16 16 16 17 16 16 17 17
17 17 17 17 17 17 17 17 17 17 17 17 17 17 17 17 17 16 16 16 16 16 16 16 16 16 16 16 16 16 16 16 16 16 16 16 16 16 16 16 16 16 16
17 17 17 17 17 17 17 17 17 17 17 17 17 17 17 16 16 16 16 16 16 16 16 16 16 16 16 16 16 16 16 16 16 16 16 16 16 16 16 16 16 16 16
17 17 17 17 17 17 17 17 16 16 16 16 16 16 16 16 16 16 16 16 16 16 16 16 16 16 16 16 16 16 16 16 16 16 16 16 16 16 16 16 16 16 16
17 17 17 17 17 17 17 16 16 16 16 16 16 16 16 16 16 16 16 16 16 16 16 15 15 16 16 16 16 16 16 16 16 16 15 16 16 15 15 15 15 15 15
17 17 17 17 17 17 17 16 16 16 16 16 16 16 16 16 16 16 16 15 15 15 15 15 15 15 16 16 16 15 15 15 15 15 15 15 15 15 15 15 15 15 15
17 17 17 17 17 17 17 16 16 16 16 16 16 16 16 16 16 15 15 15 15 15 15 15 15 15 15 15 15 15 15 15 15 15 15 15 15 15 15 15 15 15 15
17 17 17 17 17 17 17 16 16 16 16 16 16 16 16 16 15 15 15 15 15 15 15 15 15 15 15 15 15 15 15 15 15 15 15 15 15 15 15 15 15 15 15
17 17 17 17 17 17 17 16 16 16 16 16 16 16 16 16 15 15 15 15 15 15 15 15 15 15 15 15 15 15 15 15 15 15 15 15 15 15 15 14 14 14 14
17 17 17 17 17 17 17 16 16 16 16 16 16 16 16 15 15 15 15 15 15 15 15 15 14 14 14 14 14 14 14 14 14 14 14 14 14 14 14 14 14 14 14
17 17 17 17 17 17 16 16 16 16 16 16 16 16 16 15 15 15 15 15 15 15 15 15 14 14 14 14 14 14 14 14 14 14 14 14 14 14 14 14 14 14 14
17 17 17 17 17 17 16 16 16 16 16 16 16 16 15 15 15 15 15 14 14 14 14 14 14 14 14 14 14 14 13 14 14 13 14 14 14 14 14 14 14 14 14
17 17 17 17 17 17 16 16 16 16 16 16 16 15 15 15 15 15 15 14 14 14 14 14 14 14 14 14 13 13 13 13 13 13 13 13 13 13 13 13 13 13 14
17 17 17 17 17 16 16 16 16 16 16 15 15 15 15 15 15 15 15 14 14 14 14 14 14 14 14 14 13 13 13 13 13 13 13 13 13 13 13 13 13 13 13
17 17 17 17 17 16 16 16 16 16 16 15 15 15 15 15 15 14 14 14 14 14 14 14 14 14 13 13 13 13 13 12 12 12 12 12 12 13 13 13 13 13 13
17 17 17 17 17 16 16 16 16 16 15 15 15 15 15 15 14 14 14 14 14 14 14 14 14 14 13 13 13 13 13 13 12 12 12 12 12 12 12 12 12 12 12
18 17 17 17 17 16 16 16 16 16 15 15 15 15 15 15 14 14 14 14 14 14 14 14 13 13 13 13 13 13 13 13 13 12 12 12 12 12 12 12 12 12 12
18 17 17 17 17 16 16 16 16 16 15 15 15 15 15 14 14 14 14 14 14 14 14 14 14 13 13 13 13 13 13 13 13 13 12 12 12 12 12 12 12 12 12
17 17 17 17 17 16 16 16 16 16 15 15 15 15 15 14 14 14 14 14 14 14 14 14 14 14 14 14 13 13 13 13 13 13 12 12 12 12 12 12 12 12 12
Wind_Speed
0 1 6 8 10 10 11 11 11 11 11 10 10 11 11 11 11 11 11 10 10 11 11 11 11 12 12 12 12 11 11 11 11 11 11 11 10 10 10 10 9 8 9
3 3 7 9 10 10 10 11 11 11 11 11 11 11 11 11 11 11 11 11 10 10 11 11 11 11 12 12 12 12 12 12 11 11 11 11 11 12 12 11 11 9 11
5 5 7 9 9 10 10 10 11 11 11 10 11 11 11 11 11 11 11 11 10 10 11 12 12 12 12 12 12 12 12 12 12 11 11 9 9 11 12 12 12 13 13
6 6 7 9 10 10 10 11 11 11 10 10 11 11 11 11 11 12 12 12 12 12 12 12 12 12 12 12 12 12 13 12 12 11 9 8 8 11 12 13 13 14 14
7 7 7 9 10 10 10 11 11 11 11 11 11 11 11 11 11 12 12 13 14 13 13 12 12 12 12 12 13 13 13 13 13 11 10 9 8 11 12 13 14 14 14
6 6 8 9 10 10 10 10 11 11 11 11 11 12 11 11 11 12 12 13 13 13 13 12 12 12 13 13 13 13 13 13 12 11 10 9 9 11 12 13 13 13 14
5 6 8 10 10 10 10 10 11 11 11 12 12 12 11 11 11 12 12 13 13 13 13 13 13 13 13 13 13 13 13 14 12 10 9 8 10 12 12 12 13 13 13
6 6 7 9 10 10 10 10 11 11 11 11 11 11 11 11 12 12 13 12 13 13 13 13 13 13 13 14 14 14 13 12 10 10 8 8 11 12 12 12 12 13 13
7 6 5 7 8 9 10 10 10 11 11 11 11 11 11 11 12 12 12 12 12 12 12 12 13 13 13 13 14 14 14 13 10 8 8 8 11 12 13 13 13 13 13
5 5 5 5 6 7 8 9 9 10 10 10 11 11 11 11 11 11 11 11 11 11 11 11 12 13 13 14 14 14 14 12 10 9 8 9 12 12 13 12 13 13 12
6 4 4 4 5 5 6 7 7 8 8 8 8 10 10 9 9 9 9 9 10 10 10 11 12 13 13 14 14 13 12 10 9 9 8 10 11 12 12 12 12 13 12
5 4 4 3 4 4 5 5 4 4 5 5 5 6 7 7 6 7 7 8 8 8 9 10 10 11 11 10 11 11 10 10 9 8 9 11 11 11 12 12 12 12 12
6 6 5 4 4 4 3 4 3 3 3 3 4 5 6 5 5 5 5 5 6 7 8 9 9 9 10 9 9 9 10 9 8 8 10 11 11 11 11 11 11 11 11
5 6 5 5 4 4 4 3 3 2 3 3 4 6 6 5 4 4 4 4 5 5 7 7 7 9 10 10 10 9 10 9 9 9 10 11 11 10 10 10 10 11 10
6 5 5 4 4 4 4 3 4 3 3 4 5 6 7 5 3 3 3 4 5 6 6 6 7 7 7 7 9 9 8 9 10 9 9 11 11 10 10 10 11 11 11
6 5 4 4 5 5 4 3 3 3 4 5 5 6 8 7 5 4 4 4 5 6 7 7 6 6 5 6 6 8 8 8 9 9 9 9 11 11 11 11 11 11 11
6 5 5 5 5 5 4 3 3 4 5 4 5 6 8 8 7 6 4 4 5 7 8 7 7 6 5 5 5 6 6 7 8 9 9 10 9 11 12 11 11 10 10
6 6 5 5 5 5 4 4 4 5 5 5 6 7 8 9 9 7 4 3 5 7 6 5 4 5 5 4 4 4 4 5 6 8 9 9 9 9 11 12 12 11 10
7 7 6 5 6 5 5 4 5 5 5 5 6 6 7 8 9 8 5 4 6 6 4 4 4 4 4 4 4 4 4 4 4 6 7 7 8 8 9 10 11 11 11
6 6 6 5 5 5 4 4 4 4 3 4 5 6 7 7 8 8 5 5 6 4 4 4 4 3 3 3 5 5 4 3 4 4 4 6 7 7 8 9 9 9 10
5 6 6 6 5 5 4 3 3 2 1 2 3 6 7 7 8 7 5 5 5 4 4 4 4 4 3 3 4 4 4 4 4 3 4 4 5 6 7 8 8 8 8
6 6 6 6 6 5 5 4 3 3 2 2 2 3 5 6 7 7 6 4 4 4 4 4 3 3 1 1 3 2 2 4 4 4 3 3 4 5 5 6 7 7 7
6 7 7 6 6 5 5 4 3 3 3 2 1 1 1 4 6 7 6 5 4 4 4 3 3 3 2 0 1 3 3 2 1 3 3 3 3 3 3 4 5 6 6
8 7 7 6 5 5 6 6 6 4 3 3 3 2 1 4 5 6 6 6 4 3 4 3 3 2 3 1 0 0 2 3 3 0 3 3 3 3 2 3 4 5 6
7 7 7 6 5 5 6 7 7 5 3 2 2 3 2 1 3 5 6 5 4 3 4 3 3 2 2 2 2 1 2 2 2 3 1 2 2 2 2 2 2 3 4
6 6 7 7 5 5 6 7 7 7 5 4 3 3 2 2 1 2 4 5 4 3 4 3 3 3 2 2 2 2 2 2 2 2 2 1 1 2 2 1 1 1 2
Wind_Direction
350 40 80 80 81 83 84 86 88 88 88 87 88 88 85 82 79 77 77 82 82 81 79 80 80 79 76 75 74 74 76 78 79 78 76 77 79 80 82 80 78 76 77
147 103 91 85 85 87 87 86 85 86 87 87 89 91 87 83 81 79 78 83 84 84 82 80 81 79 77 75 73 72 73 73 77 76 74 76 79 80 80 83 81 81 78
119 106 95 90 90 88 89 87 86 86 84 85 88 90 88 85 82 79 78 78 86 93 88 82 79 78 77 76 73 71 71 74 76 76 74 71 76 80 81 83 84 84 82
112 105 100 94 93 90 89 87 85 84 84 86 88 89 88 86 83 79 78 77 87 95 92 85 81 78 78 76 74 73 72 76 74 75 69 66 74 82 84 83 84 84 83
101 97 103 99 96 92 91 89 86 83 84 86 90 91 90 87 84 83 82 80 85 90 88 85 81 79 78 76 74 73 73 76 73 69 66 68 75 84 84 84 84 85 84
105 102 103 103 101 94 91 91 88 85 84 87 91 90 89 87 87 86 86 84 85 86 86 85 83 80 78 75 73 74 76 76 69 65 66 70 79 87 87 86 87 86 84
114 106 106 104 103 99 95 94 93 89 88 88 88 88 88 88 90 89 88 88 87 85 85 84 82 79 76 74 73 74 78 76 70 67 66 72 85 89 88 87 88 89 86
122 108 107 109 106 101 97 96 97 93 91 90 89 90 92 92 90 90 89 89 87 86 85 83 80 77 74 71 70 72 76 74 73 73 68 78 90 90 87 86 87 89 89
118 110 99 106 108 106 103 101 101 99 96 93 92 92 94 93 91 91 90 89 89 86 83 82 80 77 75 73 71 71 71 68 64 66 72 78 89 89 88 86 85 86 87
123 119 110 105 106 108 111 107 104 104 99 95 91 90 89 88 87 88 89 89 89 85 81 80 80 77 74 73 71 69 66 61 59 57 65 80 86 88 87 85 85 87 87
133 141 129 121 114 118 122 117 111 108 105 100 95 96 91 86 84 87 89 88 85 82 79 78 78 75 74 70 70 68 62 56 56 57 67 80 83 86 86 86 86 88 88
154 161 154 141 142 140 130 117 109 101 99 102 103 106 102 96 89 86 88 85 79 74 70 72 72 72 73 69 66 63 59 54 53 56 70 76 80 85 87 88 87 87 88
158 157 161 160 156 148 130 128 119 107 100 102 117 120 111 96 83 74 71 63 59 59 60 64 67 73 76 73 70 66 61 58 55 56 66 74 79 81 83 85 87 89 89
141 147 156 157 145 144 134 130 125 116 112 116 128 129 121 107 94 86 71 58 59 65 67 68 75 78 78 76 76 72 66 62 58 53 61 69 72 75 80 85 86 86 89
144 147 149 139 138 129 118 118 107 110 123 129 125 127 127 118 109 103 83 78 74 78 82 83 81 77 74 72 77 78 72 65 63 56 53 63 67 68 76 83 86 85 85
156 154 145 132 132 120 119 112 106 109 114 113 113 125 127 126 119 104 90 80 77 82 88 90 86 83 77 76 74 75 75 69 65 64 54 53 62 67 68 75 82 83 85
163 156 153 145 127 125 122 112 102 102 102 98 101 115 126 125 117 108 95 83 81 89 92 88 80 76 75 72 65 68 73 70 70 65 58 55 57 61 62 65 73 77 81
162 155 164 148 134 131 127 111 99 95 94 93 94 102 113 118 116 109 98 88 91 94 92 88 82 77 70 68 63 56 60 67 69 68 64 61 60 59 59 61 65 70 73
169 163 163 149 147 145 133 114 97 89 89 100 98 99 110 114 117 113 107 103 100 92 89 97 86 94 88 79 75 61 50 55 61 66 62 62 63 62 60 58 59 62 65
167 160 158 150 147 139 125 103 85 71 73 89 97 101 108 112 117 115 110 104 101 90 82 89 93 80 90 92 82 62 41 40 51 53 57 61 63 64 62 59 54 53 58
161 153 156 155 156 144 134 129 126 129 121 96 100 112 117 118 121 117 108 101 98 102 108 105 101 89 74 90 84 52 25 26 38 33 45 58 57 61 64 61 57 52 51
170 164 162 167 163 159 158 160 161 153 143 132 104 103 121 123 125 123 117 115 112 108 101 100 106 101 94 90 106 96 41 10 4 15 23 49 51 61 65 63 62 58 55
172 175 174 173 164 165 155 136 114 86 71 67 86 114 113 128 131 133 132 127 123 125 130 132 130 124 146 268 119 134 139 185 334 353 5 23 36 54 52 64 64 62 60
183 177 170 170 165 164 156 151 151 151 158 187 184 177 153 147 144 145 148 143 141 140 144 157 148 140 140 166 293 96 140 147 143 47 342 354 17 42 42 63 67 67 67
178 172 171 168 166 164 163 162 158 155 171 173 163 158 160 163 162 157 157 154 152 155 161 160 146 148 148 155 162 137 86 76 98 133 194 323 353 2 21 51 79 77 76
167 164 161 162 172 171 166 164 162 164 166 159 162 170 181 189 197 180 168 166 167 165 170 173 171 169 171 157 152 146 144 143 159 139 154 205 293 317 346 15 47 86 99
Height
1536 1535 1534 1533 1531 1530 1528 1528 1528 1528 1528 1528 1527 1527 1527 1527 1527 1526 1526 1526 1526 1525 1525 1525 1525 1525 1525 1525 1525 1524 1524 1524 1524 1523 1523 1523 1522 1522 1521 1521 1520 1519 1517
1537 1536 1535 1534 1533 1531 1530 1530 1529 1529 1529 1528 1528 1528 1528 1528 1527 1527 1526 1525 1525 1525 1526 1526 1526 1526 1526 1526 1526 1526 1525 1525 1525 1524 1524 1524 1523 1523 1522 1521 1521 1520 1518
1537 1536 1536 1535 1534 1533 1532 1531 1531 1530 1530 1529 1529 1529 1529 1529 1528 1528 1526 1524 1521 1523 1525 1526 1527 1527 1527 1527 1527 1527 1527 1526 1526 1525 1525 1525 1524 1524 1523 1522 1522 1521 1519
1538 1537 1537 1536 1535 1534 1533 1533 1532 1531 1531 1530 1530 1530 1530 1530 1529 1528 1527 1523 1519 1521 1525 1527 1528 1528 1528 1528 1528 1528 1528 1527 1527 1527 1526 1526 1526 1525 1524 1524 1523 1522 1521
1539 1538 1538 1537 1536 1535 1535 1534 1533 1533 1532 1532 1531 1531 1531 1531 1530 1530 1528 1526 1524 1525 1528 1529 1530 1530 1530 1530 1529 1529 1529 1528 1528 1528 1527 1527 1527 1527 1526 1525 1525 1524 1524
1539 1539 1539 1538 1537 1536 1536 1535 1535 1534 1534 1533 1533 1532 1532 1532 1532 1531 1531 1530 1529 1529 1530 1531 1531 1531 1531 1531 1531 1530 1530 1530 1529 1529 1529 1529 1528 1528 1527 1527 1526 1526 1525
1540 1540 1540 1539 1538 1538 1537 1537 1536 1536 1535 1535 1535 1534 1534 1533 1533 1533 1533 1533 1533 1532 1533 1533 1533 1533 1533 1533 1533 1532 1532 1531 1531 1531 1530 1530 1530 1530 1529 1528 1528 1527 1527
1541 1541 1541 1540 1540 1539 1539 1538 1538 1538 1537 1537 1536 1536 1536 1535 1535 1535 1535 1535 1535 1535 1535 1535 1535 1535 1535 1535 1534 1534 1534 1533 1533 1532 1532 1532 1531 1531 1530 1530 1529 1529 1529
1543 1542 1542 1541 1541 1541 1540 1540 1540 1539 1539 1539 1538 1538 1537 1537 1537 1537 1537 1537 1537 1537 1537 1537 1537 1537 1537 1537 1536 1536 1535 1535 1534 1534 1533 1533 1533 1533 1532 1532 1531 1531 1531
1544 1544 1543 1543 1542 1542 1542 1542 1541 1541 1541 1541 1540 1540 1539 1539 1539 1538 1539 1539 1539 1539 1539 1539 1539 1539 1539 1538 1538 1538 1537 1537 1536 1536 1535 1535 1535 1534 1534 1533 1533 1533 1532
1544 1544 1544 1544 1544 1543 1543 1543 1543 1543 1543 1542 1542 1542 1542 1541 1541 1540 1541 1541 1541 1541 1541 1541 1540 1540 1540 1540 1540 1540 1539 1538 1538 1537 1537 1537 1536 1536 1536 1535 1535 1534 1534
1545 1545 1545 1545 1545 1545 1545 1545 1544 1544 1544 1544 1544 1543 1543 1543 1543 1543 1542 1543 1543 1543 1543 1542 1542 1542 1542 1541 1541 1541 1541 1540 1540 1539 1539 1538 1538 1538 1537 1537 1537 1536 1536
1545 1545 1546 1546 1546 1546 1546 1546 1546 1545 1545 1545 1545 1545 1545 1545 1544 1544 1544 1544 1544 1545 1544 1544 1544 1544 1543 1543 1543 1542 1542 1542 1541 1541 1540 1540 1540 1539 1539 1538 1538 1538 1538
1545 1545 1546 1546 1547 1547 1547 1547 1547 1546 1546 1546 1546 1546 1546 1546 1546 1546 1546 1546 1546 1546 1546 1546 1545 1545 1545 1545 1544 1544 1544 1543 1543 1542 1542 1542 1541 1541 1540 1540 1540 1540 1539
1545 1545 1546 1547 1547 1547 1548 1548 1548 1547 1547 1547 1548 1548 1548 1547 1547 1547 1547 1547 1547 1547 1547 1547 1547 1547 1546 1546 1546 1546 1545 1545 1544 1544 1543 1543 1542 1542 1542 1542 1541 1541 1541
1545 1546 1546 1547 1547 1548 1548 1548 1549 1548 1548 1548 1548 1549 1549 1549 1548 1548 1548 1548 1548 1548 1548 1548 1548 1548 1548 1547 1547 1547 1546 1546 1546 1545 1545 1544 1544 1544 1543 1543 1543 1542 1542
1544 1545 1546 1547 1548 1548 1548 1549 1549 1549 1549 1549 1549 1549 1549 1550 1549 1549 1549 1549 1549 1549 1549 1549 1549 1549 1549 1549 1548 1548 1548 1547 1547 1547 1546 1545 1545 1545 1545 1544 1544 1544 1543
1544 1545 1546 1547 1548 1548 1548 1549 1549 1549 1550 1550 1550 1550 1550 1550 1550 1550 1550 1550 1550 1550 1550 1550 1550 1550 1550 1550 1550 1549 1549 1549 1548 1548 1548 1547 1547 1546 1546 1545 1545 1545 1545
1544 1545 1546 1547 1547 1548 1548 1549 1550 1550 1550 1550 1551 1551 1551 1551 1551 1551 1551 1551 1551 1551 1551 1551 1551 1551 1551 1551 1551 1550 1550 1550 1550 1550 1549 1549 1548 1548 1547 1547 1547 1546 1546
1543 1544 1545 1546 1547 1547 1548 1549 1550 1550 1550 1551 1551 1551 1551 1551 1551 1551 1551 1551 1551 1551 1551 1551 1552 1552 1552 1552 1552 1552 1551 1551 1551 1551 1551 1550 1550 1549 1549 1549 1548 1548 1547
1542 1543 1544 1545 1546 1546 1547 1548 1549 1549 1550 1551 1551 1551 1551 1551 1551 1551 1551 1551 1552 1552 1552 1552 1552 1552 1552 1552 1552 1552 1553 1552 1552 1552 1552 1551 1551 1551 1550 1550 1549 1549 1548
1541 1542 1543 1544 1545 1545 1546 1547 1548 1549 1550 1550 1550 1551 1551 1551 1551 1552 1552 1552 1552 1552 1552 1552 1552 1552 1552 1553 1553 1552 1553 1555 1553 1553 1553 1552 1552 1552 1551 1550 1550 1549 1549
1539 1540 1541 1542 1543 1544 1545 1546 1547 1548 1549 1549 1550 1550 1551 1551 1551 1552 1552 1552 1552 1552 1552 1552 1552 1552 1552 1553 1553 1553 1553 1553 1554 1554 1553 1553 1552 1552 1552 1551 1550 1550 1549
1536 1538 1540 1541 1542 1543 1544 1545 1545 1546 1547 1548 1549 1549 1550 1551 1551 1551 1552 1552 1552 1552 1552 1552 1552 1553 1553 1553 1553 1553 1554 1553 1553 1553 1554 1553 1553 1552 1552 1551 1550 1550 1549
1535 1536 1538 1539 1540 1541 1542 1543 1544 1545 1546 1547 1548 1549 1549 1550 1550 1551 1551 1551 1552 1552 1552 1552 1552 1553 1553 1553 1553 1553 1553 1553 1553 1553 1553 1553 1553 1552 1551 1551 1550 1550 1549
1533 1534 1536 1537 1538 1539 1541 1542 1542 1544 1545 1546 1546 1547 1548 1548 1549 1549 1550 1550 1551 1551 1552 1552 1552 1552 1552 1552 1552 1552 1552 1552 1552 1552 1552 1552 1552 1552 1552 1551 1550 1550 1549